Meteo Giornale » Osservazioni meteo Corea del Sud » Osan Ab
ore: 05:15 - Osservazioni Meteo Osan Ab
Lat. 37° 6' N Lon. 127° 2' E Alt. 11 metri s.l.m.
23 °C
Foschia
Temp. 24 Ore
22 °C
25 °C
Nord
0 Km/h
Dew point 23 °C
Umidità 100 %
Visibilità 2 Km
Il sole sorge alle ore 06:03
Il sole tramonta alle ore 19:00
| Data e Ora | Cielo e Fenomeni | T °C | DP °C | Um. % | Pres. hPa | Vis. km | Vento km/h | |
|---|---|---|---|---|---|---|---|---|
| Oggi h: 05:15 | Foschia | 23 | 23 | 100 | 1011 | 2 | N 0 | |
| Oggi h: 04:55 | Foschia | 23 | 23 | 100 | 1011 | 2 | N 0 | |
| Oggi h: 03:55 | Foschia | 23 | 23 | 100 | 1011 | 5 | N 0 | |
| Oggi h: 03:45 | Foschia | 23 | 23 | 100 | 1011 | 5 | N 0 | |
| Oggi h: 03:30 | Foschia | 23 | 23 | 100 | 1011 | 2 | N 0 | |
| Oggi h: 02:55 | Foschia | 23 | 23 | 100 | 1011 | 5 | N 0 | |
| Oggi h: 02:35 | Foschia | 23 | 23 | 100 | 1011 | 6 | N 0 | |
| Oggi h: 02:15 | Foschia | 23 | 23 | 100 | 1011 | 6 | N 0 | |
| Oggi h: 02:05 | Foschia | 23 | 23 | 100 | 1011 | 6 | N 0 | |
| Oggi h: 01:55 | Foschia | 23 | 23 | 100 | 1011 | 6 | N 0 | |
| Oggi h: 01:50 | Foschia | 23 | 23 | 100 | 1011 | 6 | N 0 | |
| Oggi h: 01:30 | Foschia | 23 | 23 | 100 | 1011 | 6 | N 0 | |
| Oggi h: 00:55 | Coperto | 23 | 23 | 100 | 1011 | 5 | N 0 | |
| Oggi h: 00:25 | Coperto | 23 | 23 | 100 | 1011 | 5 | N 0 | |
| Oggi h: 00:10 | Coperto | 23 | 23 | 100 | 1011 | 5 | N 0 | |
| Ieri h: 23:55 | Foschia | 23 | 23 | 100 | 1011 | 5 | N 5.5 | |
| Ieri h: 22:55 | Foschia | 23 | 23 | 100 | 1011 | 6 | N 0 | |
| Ieri h: 22:15 | Foschia | 23 | 23 | 100 | 1011 | 5 | N 0 | |
| Ieri h: 21:55 | Foschia | 23 | 23 | 100 | 1011 | 5 | N 0 | |
| Ieri h: 21:45 | Foschia | 23 | 23 | 100 | 1011 | 5 | N 5.5 | |
| Ieri h: 21:20 | Foschia | 23 | 23 | 100 | 1011 | 2 | N 0 | |
| Ieri h: 21:13 | Pioggia Foschia | 23 | 23 | 100 | 1010 | 2 | N 0 | |
| Ieri h: 21:08 | Pioggia Foschia | 23 | 23 | 100 | 1010 | 2 | N 0 | |
| Ieri h: 21:03 | Pioggia Foschia | 23 | 23 | 100 | 1010 | 11 | N 0 | |
| Ieri h: 20:55 | Pioggia Foschia | 23 | 23 | 100 | 1010 | 2 | N 0 | |
| Ieri h: 20:46 | Foschia | 23 | 23 | 100 | 1010 | 2 | N 0 | |
| Ieri h: 20:36 | Foschia | 23 | 23 | 100 | 1010 | 10 | N 0 | |
| Ieri h: 20:21 | Foschia | 23 | 23 | 100 | 1010 | 10 | N 0 | |
| Ieri h: 20:06 | Foschia | 23 | 23 | 100 | 1010 | 10 | N 5.5 | |
| Ieri h: 20:02 | Pioggia Foschia | 23 | 23 | 100 | 1010 | 10 | N 5.5 | |
| Ieri h: 19:57 | Pioggia | 23 | 23 | 100 | 1010 | 10 | N 0 | |
| Ieri h: 18:55 | Coperto | 23 | 23 | 100 | 1009 | 11 | N 5.5 | |
| Ieri h: 17:55 | Coperto | 23 | 22 | 94 | 1009 | 11 | N 7.4 | |
| Ieri h: 16:55 | Coperto | 24 | 23 | 94 | 1009 | 10 | N 0 | |
| Ieri h: 16:31 | Coperto | 24 | 23 | 94 | 1009 | 10 | NE 7.4 | |
| Ieri h: 16:22 | Pioggia | 24 | 23 | 94 | 1009 | 14 | NE 7.4 | |
| Ieri h: 15:55 | Coperto | 23 | 23 | 100 | 1009 | 10 | NE 11.1 | |
| Ieri h: 15:28 | Coperto | 22 | 22 | 100 | 1009 | 11 | NE 9.3 | |
| Ieri h: 14:55 | Pioggia Foschia | 22 | 22 | 100 | 1010 | 8 | E 14.8 | |
| Ieri h: 14:43 | Pioggia Foschia | 22 | 22 | 100 | 1010 | 6 | E 14.8 | |
| Ieri h: 14:18 | Pioggia Foschia | 22 | 22 | 100 | 1010 | 3 | E 14.8 | |
| Ieri h: 13:55 | Pioggia Temporale nelle vicinanze | 22 | 22 | 100 | 1010 | 2 | E 9.3 | |
| Ieri h: 13:41 | Pioggia Foschia | 23 | 23 | 100 | 1010 | 5 | N 5.5 | |
| Ieri h: 13:31 | Pioggia Foschia | 22 | 22 | 100 | 1010 | 3 | E 11.1 | |
| Ieri h: 13:21 | Temporale nelle vicinanze Pioggia | 22 | 22 | 100 | 1010 | 3 | N 9.3 | |
| Ieri h: 13:08 | Temporale Foschia | 22 | 22 | 100 | 1009 | 2 | E 14.8 | |
| Ieri h: 12:55 | Temporale | 22 | 22 | 100 | 1010 | 5 | N 5.5 | |
| Ieri h: 12:40 | Pioggia Foschia | 23 | 22 | 94 | 1009 | 5 | NE 7.4 | |
| Ieri h: 12:30 | Pioggia Foschia | 23 | 23 | 100 | 1009 | 5 | E/SE 14.8 | |
| Ieri h: 11:58 | Pioggia Foschia | 25 | 24 | 94 | 1010 | 3 | S 33.3 | |
| Ieri h: 10:55 | Pioggia Foschia | 23 | 23 | 100 | 1010 | 6 | E/NE 9.3 | |
| Ieri h: 10:30 | Pioggia Foschia | 23 | 23 | 100 | 1011 | 2 | E/SE 7.4 | |
| Ieri h: 10:26 | Pioggia Foschia | 23 | 23 | 100 | 1011 | 6 | N 5.5 | |
| Ieri h: 09:55 | Pioggia Foschia | 24 | 23 | 94 | 1011 | 8 | N 5.5 | |
| Ieri h: 08:55 | Pioggia | 25 | 25 | 100 | 1010 | 11 | E 9.3 | |
| Ieri h: 07:55 | Pioggia | 24 | 24 | 100 | 1010 | 13 | E 7.4 | |
| Ieri h: 07:50 | Pioggia | 24 | 24 | 100 | 1010 | 11 | N 5.5 | |
| Ieri h: 07:30 | Pioggia Foschia | 24 | 24 | 100 | 1010 | 5 | N 0 | |
| Ieri h: 07:25 | Pioggia Foschia | 24 | 24 | 100 | 1010 | 5 | N 0 | |
| Ieri h: 07:20 | Pioggia Foschia | 24 | 24 | 100 | 1010 | 2 | N 0 | |
| Ieri h: 06:55 | Pioggia Foschia | 24 | 24 | 100 | 1010 | 10 | N 0 | |
| Ieri h: 06:31 | Pioggia Foschia | 24 | 24 | 100 | 1010 | 10 | N 0 | |
| Ieri h: 05:55 | Pioggia Foschia | 24 | 24 | 100 | 1009 | 10 | E 7.4 | |



